Вейден

Germany     49˚40′01″N   12˚10′58″E
temp.,
°C
wind,
m/s
gust,
m/s
humid.,
%
clouds,
%
prec.,
mm/h
press.,
hPa
HPBL,
m
3 december, thu
thu301:00−4˚ssw238791 0.0 1014187
04:00−5˚ssw258484 0.0 1012390
07:00−5˚ssw268892 0.0 1011345
10:00−3˚ssw368298 0.1 1010700
13:00−2˚ssw367598 0.1 1007558
16:00−3˚sse278782 0.0 1005323
19:00−4˚se289149 0.0 1004297
22:00−4˚ese22920 0.0 100145
4 december, fri
fri401:00−4˚e24870 0.0 998123
04:00−4˚ene138467 0.0 995107
07:00−3˚ene259584 0.0 994173
10:00e3691100 0.0 992274
13:00+2˚e357997 0.0 990226
16:00−1˚e278540 0.0 990177
19:00−2˚e229370 0.0 99161
22:00−2˚e229268 0.0 99226
5 december, sat
sat501:00−1˚ene129151 0.0 99227
04:00−2˚ene228774 0.0 99229
07:00−2˚nw008546 0.0 99321
10:00+1˚ene117520 0.0 99556
13:00+4˚se137226 0.0 996284
16:00+1˚ne1290100 0.0 99522
19:00+1˚ne019388 0.0 99622
22:00−1˚ssw1297100 0.1 99729
6 december, sun
sun601:00−1˚sw259792 0.1 998223
04:00−1˚ene019692 0.0 99721
07:00n239296 0.1 998109
10:00nw1198100 0.5 99861
13:00sw1298100 0.6 997107
16:00n0099100 1.1 99628
19:00nw1199100 4.4 99628
22:00+1˚s2599100 0.3 997202
7 december, mon
mon701:00+1˚wsw3898100 0.6 998420
04:00+1˚wsw51098100 0.6 999609
07:00wsw4896100 0.8 1002453
10:00ssw3794100 0.0 1005371
13:00+1˚ssw3586100 0.0 1007367
16:00−1˚s12950 0.0 100822
19:00−2˚ese12950 0.0 101021
22:00−2˚e119318 0.0 101121